When you browse on this site, cookies collect data to enhance your experience and personalize the content and advertising you see.
Visit our Privacy Policy to learn more. By continuing to use the site, you agree to this use of cookies and data.
  • In Slovakia
  • List of Countries
  • For 7 days
  • Water Temperature
  • Satellite Maps
  • Weather Map
  • Weather Widgets
  • user-avatar
    Login

    Hourly Weather Hrazdan

    Today, 20 January, Sunday

    Time Temperature Precipitation Wind Pressure Humidity
    00:00 -12°C° 0 mm 2 mps 609 mmHg 59%
    01:00 -12°C° 0 mm 2 mps 609 mmHg 59%
    02:00 -12°C° 0 mm 2 mps 609 mmHg 60%
    03:00 -10°C° 0 mm 2 mps 609 mmHg 59%
    04:00 -10°C° 0 mm 2 mps 609 mmHg 59%
    05:00 -10°C° 0 mm 2 mps 609 mmHg 59%
    06:00 -12°C° 0 mm 2 mps 609 mmHg 60%
    07:00 -10°C° 0 mm 2 mps 610 mmHg 63%
    08:00 -9°C° 0 mm 2 mps 610 mmHg 66%
    09:00 -7°C° 0 mm 2 mps 611 mmHg 70%
    10:00 -6°C° 0 mm 2 mps 611 mmHg 71%
    11:00 -5°C° 0 mm 2 mps 611 mmHg 71%
    12:00 -4°C° 0 mm 2 mps 612 mmHg 72%
    13:00 -4°C° 0 mm 2 mps 611 mmHg 72%
    14:00 -4°C° 0 mm 2 mps 611 mmHg 73%
    15:00 -3°C° 0 mm 1 mps 611 mmHg 74%
    16:00 -4°C° 0 mm 1 mps 611 mmHg 72%
    17:00 -7°C° 0 mm 1 mps 610 mmHg 70%
    18:00 -9°C° 0 mm 1 mps 610 mmHg 68%
    19:00 -9°C° 0 mm 1 mps 610 mmHg 65%
    20:00 -9°C° 0 mm 1 mps 610 mmHg 63%
    21:00 -9°C° 0 mm 1 mps 610 mmHg 60%
    22:00 -12°C° 0 mm 2 mps 610 mmHg 59%
    23:00 -12°C° 0 mm 2 mps 610 mmHg 58%

    Tomorrow, 21 January, Monday

    Time Temperature Precipitation Wind Pressure Humidity
    00:00 -12°C° 0 mm 2 mps 611 mmHg 58%
    01:00 -12°C° 0 mm 2 mps 610 mmHg 58%
    02:00 -12°C° 0 mm 2 mps 610 mmHg 59%
    03:00 -13°C° 0 mm 2 mps 610 mmHg 60%
    04:00 -13°C° 0 mm 2 mps 610 mmHg 61%
    05:00 -13°C° 0 mm 2 mps 610 mmHg 62%
    06:00 -13°C° 0 mm 2 mps 610 mmHg 63%
    07:00 -12°C° 0 mm 2 mps 610 mmHg 65%
    08:00 -10°C° 0 mm 2 mps 611 mmHg 67%
    09:00 -9°C° 0 mm 2 mps 611 mmHg 68%
    10:00 -8°C° 0 mm 2 mps 611 mmHg 68%
    11:00 -6°C° 0 mm 2 mps 611 mmHg 68%
    12:00 -6°C° 0 mm 3 mps 612 mmHg 68%
    13:00 -5°C° 0 mm 2 mps 611 mmHg 69%
    14:00 -5°C° 0 mm 2 mps 611 mmHg 69%
    15:00 -5°C° 0 mm 2 mps 610 mmHg 70%
    16:00 -7°C° 0 mm 2 mps 610 mmHg 67%
    17:00 -9°C° 0 mm 2 mps 609 mmHg 64%
    18:00 -10°C° 0 mm 2 mps 609 mmHg 62%
    19:00 -12°C° 0 mm 2 mps 609 mmHg 61%
    20:00 -12°C° 0 mm 2 mps 609 mmHg 60%
    21:00 -12°C° 0 mm 2 mps 608 mmHg 58%
    22:00 -12°C° 0 mm 2 mps 608 mmHg 60%
    23:00 -12°C° 0 mm 2 mps 608 mmHg 61%

    Day after tomorrow, 22 January, Tuesday

    Time Temperature Precipitation Wind Pressure Humidity
    00:00 -12°C° 0 mm 2 mps 608 mmHg 63%
    01:00 -12°C° 0 mm 2 mps 608 mmHg 63%
    02:00 -12°C° 0 mm 2 mps 608 mmHg 64%
    03:00 -12°C° 0 mm 2 mps 608 mmHg 64%
    04:00 -12°C° 0 mm 2 mps 607 mmHg 65%
    05:00 -12°C° 0 mm 2 mps 607 mmHg 65%
    06:00 -10°C° 0 mm 2 mps 607 mmHg 65%
    07:00 -10°C° 0 mm 2 mps 607 mmHg 66%
    08:00 -9°C° 0 mm 2 mps 608 mmHg 68%
    09:00 -8°C° 0 mm 2 mps 608 mmHg 69%
    10:00 -7°C° 0 mm 2 mps 608 mmHg 69%
    11:00 -6°C° 0 mm 3 mps 609 mmHg 69%
    12:00 -5°C° 0 mm 3 mps 609 mmHg 69%
    13:00 -5°C° 0 mm 3 mps 608 mmHg 70%
    14:00 -4°C° 0 mm 2 mps 608 mmHg 71%
    15:00 -4°C° 0 mm 2 mps 608 mmHg 72%
    16:00 -5°C° 0 mm 2 mps 608 mmHg 71%
    17:00 -7°C° 0 mm 2 mps 608 mmHg 70%
    18:00 -8°C° 0 mm 2 mps 607 mmHg 69%
    19:00 -9°C° 0 mm 2 mps 607 mmHg 67%
    20:00 -9°C° 0 mm 2 mps 607 mmHg 66%
    21:00 -10°C° 0 mm 2 mps 607 mmHg 65%
    22:00 -10°C° 0 mm 2 mps 608 mmHg 66%
    23:00 -10°C° 0 mm 2 mps 608 mmHg 67%

    23 January, Wednesday

    Time Temperature Precipitation Wind Pressure Humidity
    00:00 -10°C° 0 mm 2 mps 608 mmHg 68%
    01:00 -12°C° 0 mm 2 mps 608 mmHg 69%
    02:00 -12°C° 0 mm 2 mps 608 mmHg 69%
    03:00 -12°C° 0 mm 2 mps 608 mmHg 70%
    04:00 -12°C° 0 mm 2 mps 608 mmHg 71%
    05:00 -12°C° 0 mm 2 mps 608 mmHg 71%
    06:00 -12°C° 0 mm 2 mps 608 mmHg 71%
    07:00 -10°C° 0 mm 2 mps 609 mmHg 72%
    08:00 -9°C° 0 mm 2 mps 609 mmHg 73%
    09:00 -9°C° 0 mm 2 mps 610 mmHg 74%
    10:00 -7°C° 0 mm 2 mps 610 mmHg 73%
    11:00 -6°C° 0 mm 2 mps 611 mmHg 72%
    12:00 -4°C° 0 mm 2 mps 611 mmHg 72%
    13:00 -4°C° 0 mm 2 mps 611 mmHg 73%
    14:00 -4°C° 0 mm 2 mps 611 mmHg 74%
    15:00 -4°C° 0 mm 2 mps 610 mmHg 74%
    16:00 -6°C° 0 mm 2 mps 610 mmHg 74%
    17:00 -7°C° 0 mm 2 mps 610 mmHg 74%
    18:00 -9°C° 0 mm 2 mps 610 mmHg 73%
    19:00 -9°C° 0 mm 2 mps 610 mmHg 72%
    20:00 -9°C° 0 mm 2 mps 610 mmHg 71%
    21:00 -10°C° 0 mm 2 mps 611 mmHg 71%
    22:00 -10°C° 0 mm 2 mps 611 mmHg 71%
    23:00 -10°C° 0 mm 2 mps 611 mmHg 72%

    24 January, Thursday

    Time Temperature Precipitation Wind Pressure Humidity
    00:00 -10°C° 0 mm 2 mps 611 mmHg 73%
    01:00 -10°C° 0 mm 2 mps 611 mmHg 74%
    02:00 -10°C° 0 mm 2 mps 611 mmHg 75%
    03:00 -10°C° 0 mm 2 mps 611 mmHg 76%
    04:00 -10°C° 0 mm 2 mps 611 mmHg 76%
    05:00 -10°C° 0 mm 2 mps 611 mmHg 76%
    06:00 -10°C° 0 mm 2 mps 611 mmHg 76%
    07:00 -10°C° 0 mm 3 mps 611 mmHg 76%
    08:00 -9°C° 0 mm 3 mps 611 mmHg 76%
    09:00 -8°C° 0 mm 3 mps 612 mmHg 76%
    10:00 -7°C° 0 mm 3 mps 612 mmHg 75%
    11:00 -5°C° 0 mm 3 mps 612 mmHg 74%
    12:00 -4°C° 0 mm 3 mps 612 mmHg 73%
    13:00 -4°C° 0 mm 3 mps 612 mmHg 73%
    14:00 -4°C° 0 mm 3 mps 611 mmHg 73%
    15:00 -4°C° 0 mm 3 mps 611 mmHg 73%
    16:00 -5°C° 0 mm 3 mps 611 mmHg 73%
    17:00 -6°C° 0 mm 3 mps 611 mmHg 72%
    18:00 -7°C° 0 mm 3 mps 610 mmHg 72%
    19:00 -7°C° 0 mm 3 mps 610 mmHg 71%
    20:00 -8°C° 0 mm 3 mps 610 mmHg 70%
    21:00 -8°C° 0 mm 3 mps 610 mmHg 70%
    22:00 -8°C° 0 mm 3 mps 610 mmHg 70%
    23:00 -8°C° 0 mm 3 mps 609 mmHg 71%

    25 January, Friday

    Time Temperature Precipitation Wind Pressure Humidity
    00:00 -8°C° 0 mm 3 mps 609 mmHg 72%
    01:00 -8°C° 0 mm 3 mps 609 mmHg 73%
    02:00 -8°C° 0 mm 3 mps 609 mmHg 73%
    03:00 -7°C° 0 mm 3 mps 609 mmHg 74%
    04:00 -7°C° 0.2 mm 3 mps 609 mmHg 78%
    05:00 -7°C° 0.2 mm 3 mps 609 mmHg 82%
    06:00 -6°C° 0.2 mm 3 mps 609 mmHg 86%
    07:00 -6°C° 0 mm 3 mps 609 mmHg 85%
    08:00 -6°C° 0 mm 3 mps 609 mmHg 84%
    09:00 -5°C° 0 mm 3 mps 609 mmHg 84%
    10:00 -4°C° 0 mm 4 mps 609 mmHg 83%
    11:00 -4°C° 0 mm 4 mps 609 mmHg 82%
    12:00 -4°C° 0 mm 5 mps 609 mmHg 81%
    13:00 -2°C° 0 mm 5 mps 609 mmHg 80%
    14:00 -2°C° 0 mm 5 mps 608 mmHg 79%
    15:00 -2°C° 0 mm 5 mps 608 mmHg 78%
    16:00 -3°C° 0 mm 4 mps 608 mmHg 78%
    17:00 -5°C° 0 mm 4 mps 607 mmHg 79%
    18:00 -7°C° 0 mm 4 mps 607 mmHg 79%
    19:00 -6°C° 0 mm 3 mps 607 mmHg 80%
    20:00 -6°C° 0 mm 3 mps 607 mmHg 80%
    21:00 -6°C° 0 mm 3 mps 607 mmHg 80%
    22:00 -7°C° 0 mm 3 mps 607 mmHg 81%
    23:00 -7°C° 0 mm 3 mps 607 mmHg 81%
    Show more